| time (UTC) | temp F | wind direction | speed knots | gust knots | rain 1hr in | rain 24hr in | rain mn in | humidity % | barometer mb |
| 20260507051057 | 42 | 319 | 0.0 | 2.6 | 0.00 | 0.66 | 0.00 | 86 | 1011.8 |
| 20260507050556 | 42 | 319 | 0.9 | 2.6 | 0.00 | 0.66 | 0.00 | 86 | 1011.8 |
| 20260507050101 | 42 | 320 | 0.0 | 1.7 | 0.00 | 0.79 | 0.00 | 86 | 1011.9 |
| 20260507045556 | 42 | 320 | 0.0 | 1.7 | 0.00 | 0.79 | 0.00 | 86 | 1011.9 |
| 20260507045056 | 42 | 320 | 0.0 | 2.6 | 0.00 | 0.79 | 0.00 | 86 | 1011.9 |
| 20260507044555 | 42 | 319 | 0.9 | 3.5 | 0.00 | 0.79 | 0.00 | 86 | 1011.9 |
| 20260507044054 | 42 | 319 | 0.0 | 4.3 | 0.00 | 0.79 | 0.00 | 86 | 1011.8 |
| 20260507043553 | 42 | 319 | 0.9 | 4.3 | 0.00 | 0.79 | 0.00 | 86 | 1011.9 |
| 20260507043053 | 42 | 317 | 0.0 | 4.3 | 0.00 | 0.79 | 0.00 | 85 | 1011.8 |
| 20260507042551 | 42 | 327 | 0.0 | 3.5 | 0.00 | 0.79 | 0.00 | 85 | 1011.7 |
| 20260507042054 | 42 | 327 | 0.0 | 4.3 | 0.00 | 0.79 | 0.00 | 86 | 1011.7 |
| 20260507041551 | 42 | 327 | 0.0 | 4.3 | 0.00 | 0.79 | 0.00 | 85 | 1011.7 |
| 20260507041051 | 42 | 302 | 0.9 | 3.5 | 0.00 | 0.79 | 0.00 | 86 | 1011.8 |
| 20260507040550 | 42 | 300 | 0.9 | 3.5 | 0.00 | 0.79 | 0.00 | 86 | 1011.7 |
| 20260507040049 | 43 | 299 | 0.0 | 2.6 | 0.00 | 0.93 | 0.79 | 86 | 1011.7 |
| 20260507035548 | 43 | 298 | 0.9 | 2.6 | 0.00 | 0.93 | 0.79 | 86 | 1011.6 |
| 20260507035048 | 43 | 327 | 0.0 | 3.5 | 0.00 | 0.93 | 0.79 | 85 | 1011.6 |
| 20260507034548 | 43 | 328 | 0.9 | 3.5 | 0.00 | 0.93 | 0.79 | 85 | 1011.5 |
| 20260507034047 | 43 | 331 | 0.9 | 2.6 | 0.00 | 0.93 | 0.79 | 85 | 1011.5 |
| 20260507033547 | 43 | 333 | 0.0 | 3.5 | 0.00 | 0.93 | 0.79 | 85 | 1011.4 |
| 20260507033048 | 43 | 333 | 0.0 | 3.5 | 0.00 | 0.93 | 0.79 | 85 | 1011.4 |
| 20260507032546 | 43 | 277 | 0.0 | 1.7 | 0.00 | 0.93 | 0.79 | 85 | 1011.3 |
| 20260507032045 | 43 | 277 | 0.0 | 2.6 | 0.00 | 0.93 | 0.79 | 85 | 1011.2 |
| 20260507031547 | 43 | 277 | 0.0 | 6.1 | 0.00 | 0.93 | 0.79 | 85 | 1011.3 |
| 20260507031046 | 43 | 306 | 0.9 | 6.1 | 0.00 | 0.93 | 0.79 | 85 | 1011.2 |
| 20260507030545 | 43 | 346 | 0.0 | 1.7 | 0.00 | 0.93 | 0.79 | 85 | 1011.3 |
| 20260507030046 | 43 | 346 | 0.0 | 2.6 | 0.00 | 1.04 | 0.79 | 85 | 1011.2 |
| 20260507025545 | 43 | 346 | 0.0 | 4.3 | 0.00 | 1.04 | 0.79 | 85 | 1011.1 |
| 20260507025045 | 43 | 346 | 0.9 | 4.3 | 0.00 | 1.04 | 0.79 | 85 | 1011.2 |
| 20260507024545 | 43 | 346 | 0.9 | 3.5 | 0.00 | 1.04 | 0.79 | 85 | 1011.2 |
| 20260507024044 | 43 | 323 | 0.0 | 1.7 | 0.00 | 1.04 | 0.79 | 85 | 1011.3 |
| 20260507023544 | 44 | 323 | 0.0 | 1.7 | 0.00 | 1.04 | 0.79 | 85 | 1011.2 |
| 20260507023045 | 44 | 324 | 0.0 | 1.7 | 0.00 | 1.04 | 0.79 | 85 | 1011.1 |
| 20260507022544 | 44 | 323 | 0.0 | 4.3 | 0.00 | 1.04 | 0.79 | 85 | 1011.1 |
| 20260507022044 | 44 | 323 | 0.0 | 4.3 | 0.00 | 1.04 | 0.79 | 85 | 1011.3 |
| 20260507021545 | 44 | 325 | 0.0 | 2.6 | 0.00 | 1.04 | 0.79 | 85 | 1011.4 |
| 20260507021045 | 44 | 325 | 0.0 | 2.6 | 0.00 | 1.04 | 0.79 | 84 | 1011.4 |
| 20260507020545 | 44 | 325 | 0.0 | 4.3 | 0.00 | 1.04 | 0.79 | 85 | 1011.4 |
| 20260507020045 | 44 | 325 | 0.9 | 7.0 | 0.00 | 1.10 | 0.79 | 84 | 1011.3 |
| 20260507015543 | 44 | 319 | 1.7 | 7.0 | 0.00 | 1.10 | 0.79 | 84 | 1011.5 |
| 20260507015042 | 44 | 299 | 0.9 | 7.0 | 0.00 | 1.10 | 0.79 | 84 | 1011.5 |
| 20260507014550 | 45 | 299 | 2.6 | 7.0 | 0.00 | 1.10 | 0.79 | 84 | 1011.3 |
| 20260507014046 | 45 | 322 | 1.7 | 6.1 | 0.00 | 1.10 | 0.79 | 84 | 1011.1 |
| 20260507013544 | 45 | 342 | 0.9 | 7.0 | 0.00 | 1.10 | 0.79 | 84 | 1011.1 |
| 20260507013050 | 45 | 340 | 2.6 | 7.0 | 0.00 | 1.10 | 0.79 | 83 | 1011.2 |
| 20260507012543 | 45 | 319 | 1.7 | 7.0 | 0.00 | 1.10 | 0.79 | 83 | 1011.2 |
| 20260507012041 | 45 | 327 | 1.7 | 5.2 | 0.00 | 1.10 | 0.79 | 83 | 1011.2 |
| 20260507011543 | 45 | 331 | 0.9 | 4.3 | 0.00 | 1.10 | 0.79 | 83 | 1011.3 |
| 20260507011040 | 46 | 333 | 0.0 | 4.3 | 0.00 | 1.10 | 0.79 | 83 | 1011.2 |
| 20260507010539 | 46 | 360 | 0.9 | 4.3 | 0.00 | 1.10 | 0.79 | 83 | 1010.9 |
| 20260507010051 | 46 | 296 | 1.7 | 5.2 | 0.00 | 1.22 | 0.79 | 83 | 1010.9 |
| 20260507005539 | 46 | 355 | 1.7 | 7.0 | 0.00 | 1.22 | 0.79 | 83 | 1010.7 |
| 20260507005036 | 47 | 16 | 1.7 | 7.0 | 0.00 | 1.22 | 0.79 | 83 | 1010.6 |
| 20260507004536 | 47 | 317 | 1.7 | 6.1 | 0.00 | 1.22 | 0.79 | 83 | 1010.4 |
| 20260507004035 | 47 | 327 | 1.7 | 7.0 | 0.00 | 1.22 | 0.79 | 83 | 1010.3 |
| 20260507003537 | 48 | 261 | 1.7 | 7.0 | 0.00 | 1.22 | 0.79 | 83 | 1010.2 |
| 20260507003033 | 48 | 301 | 0.9 | 8.7 | 0.00 | 1.22 | 0.79 | 83 | 1010.1 |
| 20260507002533 | 48 | 301 | 0.9 | 8.7 | 0.00 | 1.22 | 0.79 | 84 | 1010.1 |
| 20260507002033 | 48 | 265 | 1.7 | 8.7 | 0.00 | 1.22 | 0.79 | 84 | 1010.1 |
| 20260507001534 | 48 | 290 | 1.7 | 9.6 | 0.00 | 1.22 | 0.79 | 84 | 1009.9 |
| 20260507001031 | 48 | 325 | 1.7 | 9.6 | 0.00 | 1.22 | 0.79 | 84 | 1009.9 |
| 20260507000532 | 49 | 300 | 1.7 | 8.7 | 0.00 | 1.22 | 0.79 | 84 | 1009.8 |
| 20260507000031 | 49 | 338 | 1.7 | 8.7 | 0.00 | 1.29 | 0.79 | 84 | 1009.8 |
| 20260506235531 | 49 | 300 | 3.5 | 5.2 | 0.00 | 1.29 | 0.79 | 84 | 1009.7 |
| 20260506235029 | 49 | 304 | 0.0 | 2.6 | 0.00 | 1.29 | 0.79 | 85 | 1009.3 |
| 20260506234535 | 49 | 304 | 0.0 | 1.7 | 0.00 | 1.29 | 0.79 | 85 | 1009.3 |
| 20260506234029 | 49 | 304 | 0.0 | 0.9 | 0.00 | 1.29 | 0.79 | 85 | 1009.4 |
| 20260506233529 | 49 | 304 | 0.0 | 0.9 | 0.00 | 1.29 | 0.79 | 85 | 1009.2 |
| 20260506233046 | 49 | 304 | 0.0 | 0.0 | 0.00 | 1.29 | 0.79 | 85 | 1009.2 |
| 20260506232530 | 49 | 304 | 0.0 | 0.0 | 0.00 | 1.29 | 0.79 | 85 | 1009.2 |
| 20260506232028 | 49 | 304 | 0.0 | 0.0 | 0.00 | 1.29 | 0.79 | 85 | 1009.2 |
| 20260506231529 | 49 | 304 | 0.0 | 0.0 | 0.00 | 1.29 | 0.79 | 86 | 1009.2 |
| 20260506231027 | 49 | 304 | 0.0 | 0.0 | 0.00 | 1.29 | 0.79 | 86 | 1009.1 |
| 20260506230525 | 49 | 304 | 0.0 | 0.0 | 0.00 | 1.29 | 0.79 | 86 | 1009.1 |
| 20260506230027 | 49 | 304 | 0.0 | 0.0 | 0.00 | 1.29 | 0.79 | 86 | 1009.1 |
| 20260506225525 | 49 | 304 | 0.0 | 1.7 | 0.00 | 1.29 | 0.79 | 86 | 1009.1 |
| 20260506225022 | 49 | 304 | 0.0 | 1.7 | 0.00 | 1.29 | 0.79 | 86 | 1009.1 |
| 20260506224523 | 49 | 304 | 0.0 | 1.7 | 0.00 | 1.29 | 0.79 | 86 | 1009.0 |
| 20260506224022 | 48 | 304 | 0.0 | 0.9 | 0.00 | 1.29 | 0.79 | 86 | 1009.0 |
| 20260506223520 | 48 | 304 | 0.0 | 0.9 | 0.00 | 1.29 | 0.79 | 86 | 1008.9 |
| 20260506223020 | 48 | 304 | 0.0 | 1.7 | 0.00 | 1.29 | 0.79 | 86 | 1009.0 |
| 20260506222521 | 48 | 304 | 0.0 | 1.7 | 0.00 | 1.29 | 0.79 | 86 | 1008.9 |
| 20260506222023 | 48 | 304 | 0.0 | 1.7 | 0.00 | 1.29 | 0.79 | 86 | 1008.9 |
| 20260506221520 | 48 | 304 | 0.0 | 1.7 | 0.00 | 1.29 | 0.79 | 86 | 1008.9 |
| 20260506221019 | 48 | 304 | 0.0 | 2.6 | 0.00 | 1.29 | 0.79 | 86 | 1008.7 |
| 20260506220520 | 48 | 304 | 0.0 | 2.6 | 0.00 | 1.29 | 0.79 | 86 | 1008.7 |
| 20260506220027 | 48 | 304 | 0.9 | 2.6 | 0.00 | 1.29 | 0.79 | 86 | 1008.5 |
| 20260506215519 | 48 | 306 | 0.0 | 2.6 | 0.00 | 1.29 | 0.79 | 86 | 1008.7 |
| 20260506215019 | 48 | 306 | 0.0 | 0.9 | 0.00 | 1.29 | 0.79 | 86 | 1008.7 |
| 20260506214519 | 48 | 306 | 0.0 | 0.9 | 0.00 | 1.29 | 0.79 | 86 | 1008.8 |
| 20260506214017 | 48 | 306 | 0.0 | 0.9 | 0.00 | 1.29 | 0.79 | 86 | 1008.8 |
| 20260506213516 | 48 | 306 | 0.0 | 2.6 | 0.00 | 1.29 | 0.79 | 86 | 1009.0 |
| 20260506213014 | 48 | 306 | 0.0 | 3.5 | 0.00 | 1.29 | 0.79 | 87 | 1009.0 |
| 20260506212514 | 48 | 306 | 0.0 | 3.5 | 0.00 | 1.29 | 0.79 | 87 | 1009.0 |
| 20260506212012 | 48 | 306 | 0.9 | 2.6 | 0.00 | 1.29 | 0.79 | 87 | 1008.8 |
| 20260506211518 | 48 | 306 | 0.0 | 0.0 | 0.00 | 1.29 | 0.79 | 87 | 1008.7 |
| 20260506211009 | 48 | 306 | 0.0 | 3.5 | 0.00 | 1.29 | 0.79 | 87 | 1008.8 |
| 20260506210512 | 48 | 306 | 0.0 | 3.5 | 0.00 | 1.29 | 0.79 | 88 | 1008.9 |
| 20260506210011 | 48 | 11 | 0.0 | 1.7 | 0.00 | 1.29 | 0.79 | 88 | 1008.7 |
| 20260506205504 | 48 | 11 | 0.0 | 1.7 | 0.00 | 1.29 | 0.79 | 88 | 1008.7 |
| 20260506205005 | 47 | 11 | 0.0 | 1.7 | 0.00 | 1.29 | 0.79 | 88 | 1008.7 |
| 20260506204505 | 47 | 11 | 0.0 | 1.7 | 0.00 | 1.29 | 0.79 | 88 | 1008.6 |
| 20260506204002 | 47 | 11 | 0.0 | 1.7 | 0.00 | 1.29 | 0.79 | 88 | 1008.7 |
| 20260506203503 | 47 | 11 | 0.0 | 1.7 | 0.00 | 1.29 | 0.79 | 88 | 1008.7 |
| 20260506203003 | 47 | 11 | 0.0 | 0.0 | 0.00 | 1.29 | 0.79 | 88 | 1008.6 |
| 20260506202504 | 47 | 11 | 0.0 | 0.0 | 0.00 | 1.29 | 0.79 | 88 | 1008.8 |
| 20260506202002 | 47 | 11 | 0.0 | 0.0 | 0.00 | 1.29 | 0.79 | 88 | 1008.8 |
| 20260506201502 | 46 | 11 | 0.0 | 2.6 | 0.00 | 1.29 | 0.79 | 88 | 1008.8 |
| 20260506201004 | 46 | 11 | 0.0 | 3.5 | 0.00 | 1.29 | 0.79 | 88 | 1008.8 |
| 20260506200501 | 46 | 11 | 0.9 | 3.5 | 0.00 | 1.29 | 0.79 | 88 | 1008.8 |
| 20260506200004 | 46 | 11 | 0.9 | 3.5 | 0.00 | 1.29 | 0.79 | 89 | 1008.8 |
| 20260506195501 | 46 | 9 | 0.9 | 3.5 | 0.00 | 1.29 | 0.79 | 89 | 1008.8 |
| 20260506195001 | 46 | 32 | 0.9 | 2.6 | 0.00 | 1.29 | 0.79 | 89 | 1008.7 |
| 20260506194503 | 46 | 34 | 0.9 | 3.5 | 0.00 | 1.29 | 0.79 | 89 | 1008.5 |
| 20260506194103 | 45 | 34 | 0.9 | 4.3 | 0.00 | 1.29 | 0.79 | 89 | 1008.5 |
| 20260506193602 | 45 | 38 | 0.9 | 4.3 | 0.00 | 1.29 | 0.79 | 89 | 1008.4 |
| 20260506193100 | 45 | 326 | 0.0 | 3.5 | 0.00 | 1.29 | 0.79 | 89 | 1008.5 |
| 20260506192559 | 45 | 324 | 0.0 | 4.3 | 0.00 | 1.29 | 0.79 | 89 | 1008.6 |
| 20260506192102 | 45 | 324 | 0.9 | 4.3 | 0.00 | 1.29 | 0.79 | 89 | 1008.7 |
| 20260506191600 | 45 | 360 | 0.0 | 5.2 | 0.00 | 1.29 | 0.79 | 89 | 1008.7 |
| 20260506191100 | 45 | 360 | 0.9 | 5.2 | 0.00 | 1.29 | 0.79 | 89 | 1008.7 |
| 20260506190559 | 45 | 360 | 0.9 | 5.2 | 0.00 | 1.29 | 0.79 | 89 | 1008.7 |
| 20260506190100 | 45 | 355 | 1.7 | 5.2 | 0.00 | 1.29 | 0.79 | 89 | 1008.7 |
| 20260506185558 | 45 | 355 | 0.9 | 5.2 | 0.00 | 1.29 | 0.79 | 89 | 1008.7 |
| 20260506185059 | 45 | 15 | 1.7 | 5.2 | 0.00 | 1.29 | 0.79 | 89 | 1008.7 |
| 20260506184612 | 45 | 24 | 1.7 | 4.3 | 0.00 | 1.29 | 0.79 | 89 | 1008.6 |
| 20260506184058 | 45 | 360 | 0.9 | 7.8 | 0.00 | 1.29 | 0.79 | 89 | 1008.5 |
| 20260506183600 | 45 | 355 | 0.9 | 7.8 | 0.00 | 1.29 | 0.79 | 89 | 1008.4 |
| 20260506183059 | 45 | 30 | 1.7 | 7.0 | 0.00 | 1.29 | 0.79 | 89 | 1008.5 |
| 20260506182557 | 46 | 5 | 2.6 | 7.0 | 0.00 | 1.29 | 0.79 | 90 | 1008.4 |
| 20260506182057 | 46 | 5 | 1.7 | 5.2 | 0.00 | 1.29 | 0.79 | 90 | 1008.4 |
| 20260506181557 | 46 | 34 | 0.9 | 5.2 | 0.00 | 1.29 | 0.79 | 90 | 1008.5 |
| 20260506181056 | 45 | 355 | 1.7 | 3.5 | 0.00 | 1.29 | 0.79 | 90 | 1008.4 |
| 20260506180557 | 45 | 333 | 0.9 | 3.5 | 0.00 | 1.29 | 0.79 | 90 | 1008.4 |
| 20260506180056 | 45 | 329 | 0.9 | 3.5 | 0.00 | 1.29 | 0.79 | 90 | 1008.5 |
| 20260506175557 | 45 | 9 | 0.9 | 3.5 | 0.00 | 1.29 | 0.79 | 90 | 1008.5 |
| 20260506175053 | 45 | 360 | 0.0 | 3.5 | 0.00 | 1.29 | 0.79 | 90 | 1008.4 |
| 20260506174553 | 45 | 360 | 0.9 | 3.5 | 0.00 | 1.29 | 0.79 | 90 | 1008.2 |
| 20260506174053 | 45 | 309 | 0.9 | 4.3 | 0.00 | 1.29 | 0.79 | 90 | 1008.1 |
| 20260506173552 | 46 | 309 | 0.9 | 4.3 | 0.00 | 1.29 | 0.79 | 90 | 1008.1 |
| 20260506173104 | 45 | 350 | 0.9 | 3.5 | 0.00 | 1.29 | 0.79 | 90 | 1008.1 |
| 20260506172551 | 45 | 348 | 0.0 | 5.2 | 0.00 | 1.29 | 0.79 | 90 | 1008.0 |
| 20260506172050 | 45 | 355 | 1.7 | 5.2 | 0.00 | 1.29 | 0.79 | 90 | 1007.8 |
| 20260506171553 | 45 | 16 | 1.7 | 5.2 | 0.00 | 1.29 | 0.79 | 90 | 1007.7 |
| 20260506171050 | 45 | 13 | 1.7 | 4.3 | 0.00 | 1.29 | 0.79 | 90 | 1007.7 |
| 20260506170550 | 45 | 10 | 0.9 | 4.3 | 0.00 | 1.29 | 0.79 | 90 | 1007.7 |
| 20260506170059 | 45 | 5 | 0.9 | 4.3 | 0.00 | 1.29 | 0.79 | 90 | 1007.7 |
| 20260506165550 | 45 | 15 | 1.7 | 5.2 | 0.00 | 1.29 | 0.79 | 90 | 1007.7 |
| 20260506165050 | 45 | 48 | 2.6 | 5.2 | 0.00 | 1.29 | 0.79 | 90 | 1007.7 |
| 20260506164609 | 46 | 340 | 0.9 | 4.3 | 0.00 | 1.29 | 0.79 | 90 | 1007.6 |
| 20260506164048 | 45 | 334 | 1.7 | 4.3 | 0.00 | 1.29 | 0.79 | 90 | 1007.6 |
| 20260506163549 | 45 | 331 | 0.9 | 4.3 | 0.00 | 1.29 | 0.79 | 90 | 1007.5 |
| 20260506163055 | 45 | 355 | 1.7 | 5.2 | 0.00 | 1.29 | 0.79 | 90 | 1007.5 |
| 20260506162549 | 45 | 13 | 1.7 | 5.2 | 0.00 | 1.29 | 0.79 | 90 | 1007.5 |
| 20260506162048 | 45 | 355 | 1.7 | 5.2 | 0.00 | 1.29 | 0.79 | 90 | 1007.5 |
| 20260506161551 | 45 | 360 | 0.9 | 4.3 | 0.00 | 1.29 | 0.79 | 90 | 1007.5 |
| 20260506161048 | 45 | 360 | 0.9 | 3.5 | 0.00 | 1.29 | 0.79 | 90 | 1007.6 |
| 20260506160548 | 45 | 355 | 0.9 | 3.5 | 0.00 | 1.29 | 0.79 | 90 | 1007.5 |
| 20260506160104 | 45 | 355 | 0.9 | 3.5 | 0.01 | 1.29 | 0.79 | 90 | 1007.6 |
| 20260506155547 | 45 | 355 | 0.9 | 3.5 | 0.01 | 1.29 | 0.79 | 90 | 1007.6 |
| 20260506155048 | 45 | 355 | 0.9 | 3.5 | 0.01 | 1.29 | 0.79 | 90 | 1007.5 |
| 20260506154552 | 45 | 350 | 0.0 | 1.7 | 0.01 | 1.29 | 0.79 | 90 | 1007.7 |
| 20260506154048 | 45 | 350 | 0.0 | 3.5 | 0.01 | 1.29 | 0.79 | 90 | 1007.7 |
| 20260506153547 | 45 | 350 | 0.0 | 3.5 | 0.01 | 1.29 | 0.79 | 90 | 1007.5 |
| 20260506153046 | 45 | 360 | 0.9 | 3.5 | 0.01 | 1.29 | 0.79 | 90 | 1007.5 |
| 20260506152547 | 44 | 360 | 0.9 | 3.5 | 0.01 | 1.29 | 0.79 | 90 | 1007.3 |
| 20260506152047 | 44 | 50 | 0.0 | 1.7 | 0.01 | 1.29 | 0.79 | 90 | 1007.5 |
| 20260506151547 | 44 | 50 | 0.0 | 1.7 | 0.02 | 1.29 | 0.79 | 90 | 1007.5 |
| 20260506151046 | 44 | 50 | 0.9 | 1.7 | 0.02 | 1.29 | 0.79 | 90 | 1007.5 |
| 20260506150546 | 44 | 50 | 0.0 | 2.6 | 0.01 | 1.28 | 0.78 | 90 | 1007.5 |
| 20260506150046 | 44 | 50 | 0.0 | 2.6 | 0.01 | 1.28 | 0.78 | 90 | 1007.5 |
| 20260506145548 | 44 | 50 | 0.0 | 2.6 | 0.01 | 1.28 | 0.78 | 90 | 1007.5 |
| 20260506145046 | 44 | 50 | 0.0 | 2.6 | 0.01 | 1.28 | 0.78 | 90 | 1007.4 |
| 20260506144547 | 44 | 50 | 0.0 | 2.6 | 0.01 | 1.28 | 0.78 | 90 | 1007.2 |
| 20260506144045 | 44 | 50 | 0.9 | 2.6 | 0.02 | 1.28 | 0.78 | 90 | 1007.2 |
| 20260506143545 | 44 | 50 | 0.9 | 3.5 | 0.02 | 1.28 | 0.78 | 90 | 1007.1 |
| 20260506143045 | 44 | 50 | 0.9 | 3.5 | 0.02 | 1.28 | 0.78 | 90 | 1007.0 |
| 20260506142544 | 44 | 49 | 0.9 | 3.5 | 0.02 | 1.28 | 0.78 | 90 | 1007.0 |
| 20260506142044 | 43 | 53 | 1.7 | 4.3 | 0.02 | 1.28 | 0.78 | 90 | 1007.0 |
| 20260506141603 | 43 | 53 | 1.7 | 4.3 | 0.01 | 1.27 | 0.77 | 90 | 1006.9 |
| 20260506141049 | 43 | 134 | 0.9 | 4.3 | 0.01 | 1.27 | 0.77 | 90 | 1006.8 |
| 20260506140548 | 43 | 134 | 0.9 | 4.3 | 0.01 | 1.27 | 0.77 | 90 | 1007.0 |
| 20260506140044 | 43 | 107 | 1.7 | 5.2 | 0.01 | 1.27 | 0.77 | 90 | 1007.0 |
| 20260506135543 | 43 | 45 | 0.9 | 5.2 | 0.01 | 1.27 | 0.77 | 90 | 1007.2 |
| 20260506135043 | 43 | 42 | 0.9 | 4.3 | 0.01 | 1.27 | 0.77 | 90 | 1007.0 |
| 20260506134543 | 43 | 42 | 0.9 | 4.3 | 0.01 | 1.27 | 0.77 | 90 | 1007.1 |
| 20260506134043 | 43 | 42 | 0.9 | 3.5 | 0.01 | 1.26 | 0.76 | 90 | 1007.0 |
| 20260506133542 | 43 | 42 | 1.7 | 3.5 | 0.01 | 1.26 | 0.76 | 90 | 1007.0 |
| 20260506133042 | 43 | 76 | 0.9 | 3.5 | 0.01 | 1.26 | 0.76 | 90 | 1006.9 |
| 20260506132541 | 43 | 76 | 0.9 | 3.5 | 0.01 | 1.26 | 0.76 | 90 | 1006.9 |
| 20260506132041 | 43 | 76 | 0.0 | 7.0 | 0.01 | 1.26 | 0.76 | 90 | 1006.9 |
| 20260506131541 | 43 | 75 | 1.7 | 7.0 | 0.01 | 1.26 | 0.76 | 90 | 1006.8 |
| 20260506131041 | 43 | 136 | 1.7 | 7.0 | 0.02 | 1.26 | 0.76 | 90 | 1006.7 |
| 20260506130540 | 43 | 65 | 1.7 | 7.0 | 0.02 | 1.26 | 0.76 | 90 | 1006.8 |
| 20260506130040 | 43 | 63 | 0.9 | 3.5 | 0.03 | 1.26 | 0.76 | 90 | 1006.9 |
| 20260506125539 | 43 | 65 | 0.9 | 4.3 | 0.03 | 1.26 | 0.76 | 90 | 1007.0 |
| 20260506125039 | 43 | 65 | 1.7 | 4.3 | 0.03 | 1.26 | 0.76 | 90 | 1007.0 |
| 20260506124541 | 43 | 63 | 0.9 | 7.0 | 0.03 | 1.26 | 0.76 | 89 | 1007.0 |
| 20260506124038 | 43 | 63 | 1.7 | 7.0 | 0.03 | 1.25 | 0.75 | 90 | 1007.2 |
| 20260506123539 | 43 | 48 | 0.0 | 4.3 | 0.03 | 1.25 | 0.75 | 89 | 1007.0 |
| 20260506123042 | 43 | 48 | 1.7 | 4.3 | 0.03 | 1.25 | 0.75 | 89 | 1007.0 |
| 20260506122539 | 43 | 60 | 0.9 | 4.3 | 0.03 | 1.25 | 0.75 | 89 | 1007.1 |
| 20260506122037 | 43 | 60 | 1.7 | 5.2 | 0.03 | 1.25 | 0.75 | 89 | 1007.0 |
| 20260506121537 | 43 | 60 | 2.6 | 5.2 | 0.03 | 1.25 | 0.75 | 89 | 1007.0 |
| 20260506121036 | 43 | 42 | 0.9 | 3.5 | 0.02 | 1.24 | 0.74 | 89 | 1007.2 |
| 20260506120536 | 43 | 42 | 0.9 | 4.3 | 0.03 | 1.24 | 0.74 | 89 | 1007.0 |
| 20260506120104 | 43 | 42 | 1.7 | 4.3 | 0.02 | 1.23 | 0.73 | 90 | 1007.1 |
| 20260506115535 | 43 | 11 | 0.9 | 4.3 | 0.02 | 1.23 | 0.73 | 89 | 1007.0 |
| 20260506115035 | 43 | 57 | 0.0 | 8.7 | 0.03 | 1.23 | 0.73 | 89 | 1006.9 |
| 20260506114534 | 43 | 61 | 2.6 | 8.7 | 0.03 | 1.23 | 0.73 | 89 | 1006.9 |
| 20260506114034 | 43 | 46 | 1.7 | 7.0 | 0.03 | 1.22 | 0.72 | 89 | 1006.7 |
| 20260506113533 | 43 | 59 | 1.7 | 7.0 | 0.03 | 1.22 | 0.72 | 89 | 1006.6 |
| 20260506113034 | 43 | 24 | 1.7 | 5.2 | 0.04 | 1.22 | 0.72 | 89 | 1006.6 |
| 20260506112532 | 43 | 53 | 1.7 | 6.1 | 0.05 | 1.22 | 0.72 | 89 | 1006.5 |
| 20260506112031 | 43 | 56 | 1.7 | 6.1 | 0.05 | 1.22 | 0.72 | 89 | 1006.5 |
| 20260506111530 | 43 | 70 | 1.7 | 4.3 | 0.06 | 1.22 | 0.72 | 89 | 1006.5 |
| 20260506111030 | 43 | 49 | 0.9 | 8.7 | 0.07 | 1.22 | 0.72 | 89 | 1006.8 |
| 20260506110528 | 43 | 49 | 2.6 | 8.7 | 0.07 | 1.21 | 0.71 | 89 | 1006.7 |
| 20260506110029 | 44 | 71 | 1.7 | 7.0 | 0.08 | 1.21 | 0.71 | 89 | 1006.6 |
| 20260506105529 | 44 | 70 | 2.6 | 7.0 | 0.08 | 1.21 | 0.71 | 89 | 1006.7 |
| 20260506105028 | 44 | 71 | 2.6 | 5.2 | 0.08 | 1.20 | 0.70 | 89 | 1006.8 |
| 20260506104527 | 44 | 67 | 2.6 | 5.2 | 0.09 | 1.20 | 0.70 | 89 | 1006.8 |
| 20260506104026 | 44 | 75 | 0.0 | 3.5 | 0.08 | 1.19 | 0.69 | 89 | 1006.9 |
| 20260506103526 | 44 | 75 | 0.9 | 4.3 | 0.09 | 1.19 | 0.69 | 89 | 1006.8 |
| 20260506103030 | 44 | 76 | 0.9 | 4.3 | 0.09 | 1.18 | 0.68 | 89 | 1006.9 |
| 20260506102526 | 44 | 38 | 0.9 | 2.6 | 0.09 | 1.17 | 0.67 | 89 | 1007.1 |
| 20260506102024 | 44 | 38 | 0.9 | 2.6 | 0.09 | 1.17 | 0.67 | 89 | 1007.1 |
| 20260506101525 | 44 | 38 | 0.0 | 2.6 | 0.09 | 1.15 | 0.66 | 89 | 1007.0 |
| 20260506101025 | 44 | 52 | 0.0 | 4.3 | 0.08 | 1.14 | 0.65 | 89 | 1006.9 |
| 20260506100525 | 44 | 71 | 0.0 | 5.2 | 0.07 | 1.13 | 0.64 | 89 | 1006.9 |
| 20260506100025 | 44 | 71 | 1.7 | 5.2 | 0.06 | 1.12 | 0.63 | 89 | 1006.6 |
| 20260506095524 | 44 | 31 | 0.9 | 3.5 | 0.07 | 1.12 | 0.63 | 89 | 1006.5 |
| 20260506095023 | 44 | 30 | 0.9 | 3.5 | 0.06 | 1.12 | 0.62 | 89 | 1006.7 |
| 20260506094531 | 44 | 38 | 0.0 | 4.3 | 0.06 | 1.11 | 0.61 | 89 | 1006.6 |
| 20260506094022 | 44 | 33 | 0.9 | 4.3 | 0.06 | 1.11 | 0.61 | 89 | 1006.5 |
| 20260506093521 | 44 | 48 | 1.7 | 6.1 | 0.06 | 1.10 | 0.60 | 89 | 1006.6 |
| 20260506093039 | 44 | 64 | 0.9 | 6.1 | 0.06 | 1.09 | 0.59 | 89 | 1006.5 |
| 20260506092520 | 44 | 66 | 1.7 | 6.1 | 0.05 | 1.08 | 0.57 | 89 | 1006.5 |
| 20260506092020 | 44 | 127 | 1.7 | 7.0 | 0.05 | 1.08 | 0.57 | 89 | 1006.4 |
| 20260506091518 | 45 | 80 | 1.7 | 7.0 | 0.05 | 1.07 | 0.56 | 89 | 1006.3 |
| 20260506091017 | 45 | 77 | 1.7 | 5.2 | 0.06 | 1.07 | 0.56 | 89 | 1006.1 |
| 20260506090516 | 45 | 81 | 1.7 | 6.1 | 0.07 | 1.07 | 0.56 | 89 | 1006.3 |
| 20260506090016 | 45 | 87 | 2.6 | 6.1 | 0.08 | 1.07 | 0.56 | 89 | 1006.2 |
| 20260506085615 | 45 | 51 | 1.7 | 6.1 | 0.08 | 1.06 | 0.56 | 89 | 1006.6 |
| 20260506085015 | 45 | 5 | 0.0 | 6.1 | 0.09 | 1.06 | 0.56 | 89 | 1006.7 |
| 20260506084514 | 45 | 10 | 1.7 | 8.7 | 0.09 | 1.05 | 0.55 | 89 | 1006.6 |
| 20260506084013 | 45 | 63 | 2.6 | 8.7 | 0.10 | 1.05 | 0.55 | 89 | 1006.3 |
| 20260506083516 | 45 | 60 | 0.9 | 4.3 | 0.10 | 1.04 | 0.54 | 89 | 1006.3 |
| 20260506083012 | 45 | 47 | 0.9 | 3.5 | 0.10 | 1.03 | 0.53 | 89 | 1006.4 |
| 20260506082515 | 45 | 46 | 0.9 | 3.5 | 0.12 | 1.03 | 0.53 | 89 | 1006.8 |
| 20260506082014 | 45 | 63 | 0.9 | 4.3 | 0.13 | 1.03 | 0.53 | 88 | 1006.7 |
| 20260506081510 | 45 | 65 | 0.0 | 4.3 | 0.13 | 1.02 | 0.52 | 88 | 1006.8 |
| 20260506081011 | 46 | 67 | 1.7 | 4.3 | 0.14 | 1.01 | 0.51 | 88 | 1006.8 |
| 20260506080510 | 46 | 64 | 0.0 | 4.3 | 0.15 | 1.00 | 0.50 | 88 | 1007.1 |
| 20260506073507 | 46 | 61 | 1.7 | 8.7 | 0.18 | 0.94 | 0.44 | 88 | 1006.8 |
| 20260506073006 | 46 | 355 | 1.7 | 7.0 | 0.19 | 0.93 | 0.43 | 88 | 1006.9 |
| 20260506072504 | 47 | 51 | 1.7 | 7.8 | 0.18 | 0.91 | 0.41 | 88 | 1006.8 |
| 20260506072004 | 47 | 5 | 0.9 | 7.8 | 0.18 | 0.90 | 0.40 | 88 | 1006.8 |
| 20260506071506 | 47 | 75 | 3.5 | 7.8 | 0.18 | 0.89 | 0.39 | 88 | 1006.6 |
| 20260506071003 | 47 | 102 | 2.6 | 6.1 | 0.16 | 0.87 | 0.37 | 88 | 1006.7 |
| 20260506070503 | 47 | 75 | 1.7 | 6.1 | 0.15 | 0.85 | 0.35 | 88 | 1006.6 |
| 20260506062104 | 47 | 63 | 0.9 | 3.5 | 0.06 | 0.72 | 0.22 | 88 | 1006.9 |
| 20260506061603 | 47 | 76 | 0.9 | 4.3 | 0.06 | 0.71 | 0.21 | 88 | 1006.6 |
| 20260506061058 | 47 | 119 | 0.0 | 5.2 | 0.06 | 0.71 | 0.21 | 88 | 1006.6 |
| 20260506060559 | 47 | 76 | 0.9 | 5.2 | 0.06 | 0.70 | 0.20 | 88 | 1006.6 |